Погода Верещагино

Погода Верещагино : погода сейчас, прогноз погоды и архив. Всё, что Вы хотите узнать о погоде Верещагино!

Поиск расширенной информации на нашем сайте:

Другие новости

Новости СМИ2

Главная страница сайта

Новости сайта

03.07.2017

Напоминаем, что на нашем специализированном сайте Метеоцентр.Азия вы можете получить высокодетализированные автоматические прогнозы погоды по пунктам России, СНГ и мира в авиационном формате (включающие направление и скорость ветра, видимость, явления погоды, количество и форму облачности, нижнюю и верхнюю границу облачности).


Погода Верещагино - сегодня

Время (UTC), дата Ветер
(°,м/с) 
Видим.   Явления Облачность Т
(°С)
Тd
(°С)
f(%) Тe
(°С)
Pmin
(гПа)
dP
(гПа)
Po
(мм)
O2
(г/м3)
Тmin Tmax R s Состояние
почвы
12 18.02.18 170 (Ю) н/о  слаб. снег  10/0 средняя 
[Sc|Ac As]
-16.2 -18.8 80 -19  1021.9  763  329    -16.1     
15 18.02.18 160 (Ю) н/о  слаб. снег  10/0 средняя, верхняя 
[As op|Cs]
-17.4 -20.8 75 -18  1021.1  -0.8  763  330           
18 18.02.18 140 (ЮВ) н/о  слаб. снег  10/0 средняя, верхняя 
[Ac As|Cs]
-18 -21.4 75 -18  1019.7  -1.5  762  330           
21 18.02.18 150 (ЮВ) н/о  слаб. снег  10/0 средняя, верхняя 
[Ac As|Cs]
-16.6 -19.2 80 -17  1018  -1.6  760  328           
00 19.02.18 160 (Ю) н/о  слаб. снег  10/0 средняя, верхняя 
[Ac As|Cs]
-16 -18.7 80 -18  1018  760  327  -19.3    100  равномерный
сухой снег
100% 
03 19.02.18 180 (Ю) 10 км  слаб. снег  10/0 средняя, верхняя 
[Ac As|Cs]
-16.4 -19 80 -17  1017.7  -0.3  760  327           
06 19.02.18 170 (Ю) 10 км  слаб. снег  10/0 средняя, верхняя 
[Ac As|Cs]
-13.6 -17.1 75 -14  1016.9  -0.8  760  324           
09 19.02.18 160 (Ю) 10 км  слаб. снег  10/0 средняя 
[Ac As]
-12.7 -16.2 75 -16  1016.7  -0.1  760  322           
12 19.02.18 160 (Ю) н/о  слаб. снег  10/0 средняя 
[Ac As]
-12.3 -15 80 -16  1016.4  -0.3  759  322    -12.3     
15 19.02.18 160 (Ю) н/о  слаб. снег  10/0 средняя 
[Ac As]
-12 -14.7 80 -14  1016.2  -0.2  759  321           
18 19.02.18 270 (З) н/о  слаб. снег  10/0 средняя, верхняя 
[Ac As|Cs]
-13.4 -16.1 80 -13  1016.7  0.4  759  323           
21 19.02.18 тихо ()   н/о  слаб. снег  10/0 средняя, верхняя 
[Ac As|Cs]
-16.6 -19.2 80 -17  1017.5  0.8  760  328           
00 20.02.18 220 (ЮЗ) н/о  слаб. снег  10/0 средняя, верхняя 
[Ac trans|Cs]
-18.5 -21.1 80 -19  1018.7  1.2  761  331  -19.1    102  равномерный
сухой снег
100% 
06 20.02.18 220 (ЮЗ) 20000 м  {снег}  8/0 средняя, верхняя 
[Ac lent|Cc]
-18.8 -22.1 75 -19  1021.1  1.1  763  332           
09 20.02.18 310 (СЗ) 20000 м    3/0 средняя 
[Ac lent]
-19 -23.1 70 -19  1022.6  1.5  764  332           
12 20.02.18 340 (С) н/о    10/0 средняя, верхняя 
[Ac lent|Cs]
-22 -25.2 75 -22  1024  1.4  765  337    -17.2  0.3     
15 20.02.18 010 (С) н/о    10/0 средняя, верхняя 
[Ac lent|Cs]
-27.5 -31.3 70 -28  1024.7  0.6  765  345           
18 20.02.18 230 (ЮЗ) н/о    8/0 средняя, верхняя 
[Ac lent|Cs]
-29.8 -33.5 70 -31  1025.2  0.5  766  348           
21 20.02.18 тихо ()   н/о    6/0 средняя, верхняя 
[Ac lent|Cs]
-32.1 -35.7 70 -32  1026  0.8  766  352           
00 21.02.18 040 (СВ) н/о    10/0 средняя, верхняя 
[Ac trans|Cs]
-33.9 -37.5 70 -35  1027  0.9  767  355  -33.9      102  равномерный
сухой снег
100% 
03 21.02.18 330 (СЗ) 20000 м    3/0 верхняя 
[Cs]
-34.1 -37.8 69 -35  1027.6  0.6  767  355  -34.5         
06 21.02.18 360 (С) 20000 м    ясно 
-30.5 -34.1 71 -31  1028.4  0.9  768  350           
09 21.02.18 360 (С) 20000 м    ясно 
-25.9 -29.8 70 -26  1029.1  0.7  769  344           
12 21.02.18 360 (С) н/о    3/0 верхняя 
[Cs]
-25.8 -28.9 75 -26  1029.5  0.4  769  344    -25.7       
15 21.02.18 тихо ()   н/о    3/0 верхняя 
[Cs]
-30.8 -34.5 70 -31  1029.6  769  351           
Время (UTC), дата Ветер
(°,м/с) 
Видим.   Явления Облачность Т
(°С)
Тd
(°С)
f(%) Тe
(°С)
Pmin
(гПа)
dP
(гПа)
Po
(мм)
O2
(г/м3)
Тmin Tmax R s Состояние
почвы

Для получения пояснительной информации подведите курсор к названию столбца.

ПОГОДА Верещагино - архив

Всё, что Вы хотите узнать о погоде Верещагино - удобно и подробно!

Выберите нужную дату (начиная с 1 января 2015* года) и нажмите кнопку "Найти".
Будут отображены архивные сводки погоды по пункту Верещагино, начиная с указанной даты.


Отображать данные в формате CSV (для использования в таблицах Excel)


Внимание! Наш архив погоды предназначен исключительно для личного некоммерческого использования в познавательных целях. Если Вам необходимы официальные справки о состоянии погоды (для производственных, юридических, коммерческих и т.п. целей), обращайтесь в органы Росгидромета.

*Примечание: данная дата относится к архиву по метеостанциям СССР (Россия, СНГ, Балтия).
Архив по метеостанциям Зарубежной Европы и Азии (кроме Китая) хранится 10 дней, по другим регионам земного шара (Китай, Африка, Америка, Австралия, Океания) - 1 день.

Верещагино - район местоположения метеостанции


Название, широта, долгота, высота метеостанции:
Верещагино 64.2°ш. 87.6°д. 26 м над ур. моря [Российская Федерация]

Дополнительная информация

В oтличие oт бoльшинства пoгoдных сайтoв мы публикуем пoдрoбную метеoинфoрмацию в детальнoм прoфессиoнальнoм фoрмате.

Характеристики температуры и влажнoсти вoздуха измеряются на высoте 2 м в тени вдали oт зданий и деревьев.
Скoрoсть ветра измеряется на высoте 10 м (на урoвне рoста челoвека скoрoсть ветра ниже в 1.5-2 раза). Если метеoстанция нахoдится в гoрoде или в лесу, тo скoрoсть ветра занижена на 2-4 м/с пo сравнению с oткрытым местoм. Скoрoсть ветра над акватoриями крупных рек и oзёр, а также на вершинах хoлмoв на 2-5 м/с выше, чем в oбычных услoвиях.
Атмoсфернoе давление в разных тoчках местнoсти мoжет значительнo oтличаться oт давления на метеoстанции, в зависимoсти oт услoвий рельефа (при пoдъёме на 10 м давление пoнижается примернo на 1 мм рт.ст.).